Weather History for Hugo, OK

Change the Weather History Date:

Tuesday, February 12, 2013

  Actual Average Record
Temperature  
Mean Temperature 39 °F -  
Max Temperature 42 °F 56 °F 54 °F (2014)
Min Temperature 36 °F 35 °F 32 °F (2014)
Degree Days  
Heating Degree Days 26    
Moisture  
Dew Point 38 °F    
Average Humidity 90    
Maximum Humidity 97    
Minimum Humidity 77    
Precipitation  
Precipitation 0.00 in - - ()
Sea Level Pressure  
Sea Level Pressure 29.96 in    
Wind  
Wind Speed 5 mph (NE)    
Max Wind Speed 15 mph    
Max Gust Speed 21 mph    
Visibility 8 miles    
Events Rain , Thunderstorm    
Averages and records for this station are not official NWS values.
T = Trace of Precipitation, MM = Missing Value Source: NWS Daily Summary

Daily Weather History Graph

Daily Weather History Graph

Search for Another Location

Airport:

Trip Planner

Search our weather history database for the weather conditions in past years. The results will help you decide how hot, cold, wet, or windy it might be!

Date:

Astronomy

Feb. 12, 2013 Rise Set
Actual Time 7:09 AM CST 6:03 PM CST
Civil Twilight 6:43 AM CST 6:29 PM CST
Nautical Twilight 6:14 AM CST 6:58 PM CST
Astronomical Twilight 5:45 AM CST 7:27 PM CST
Moon 8:17 AM CST (2/12) 8:54 PM CST (2/12)
Length of Visible Light 11h 45m
Length of Day
10h 54m
Waxing Crescent, 7% of the Moon is Illuminated
Feb 12
Waxing Crescent
Feb 17
First Quarter
Feb 25
Full
Mar 4
Last Quarter
Mar 11
New

Hourly Weather History & Observations

Time (CST) Temp. Windchill Dew Point Humidity Pressure Visibility Wind Dir Wind Speed Gust Speed Precip Events Conditions
12:15 AM 38.7 °F 36.3 °F 33.4 °F 81% 30.09 in 10.0 mi NE 3.5 mph - N/A   Scattered Clouds
12:35 AM 40.1 °F 38.0 °F 33.3 °F 77% 30.09 in 10.0 mi NE 3.5 mph - N/A   Mostly Cloudy
12:55 AM 39.2 °F - 32.9 °F 78% 30.08 in 10.0 mi Calm Calm - N/A   Scattered Clouds
1:15 AM 37.9 °F 33.5 °F 32.9 °F 82% 30.05 in 10.0 mi ENE 5.8 mph - N/A   Clear
1:35 AM 37.6 °F 34.0 °F 32.5 °F 82% 30.04 in 10.0 mi ENE 4.6 mph - N/A   Clear
1:55 AM 36.7 °F 32.9 °F 32.5 °F 85% 30.01 in 10.0 mi NE 4.6 mph - N/A   Clear
2:15 AM 37.4 °F - 32.9 °F 84% 30.01 in 10.0 mi Calm Calm - N/A   Clear
2:35 AM 38.1 °F - 33.1 °F 82% 30.01 in 10.0 mi Calm Calm - N/A   Clear
2:55 AM 38.3 °F 34.8 °F 32.9 °F 81% 30.00 in 10.0 mi NNE 4.6 mph - N/A   Clear
3:15 AM 38.5 °F 34.1 °F 34.0 °F 84% 30.08 in 10.0 mi West 5.8 mph - N/A   Mostly Cloudy
3:35 AM 39.7 °F - 34.0 °F 80% 30.05 in 10.0 mi Calm Calm - N/A   Mostly Cloudy
3:55 AM 37.6 °F 35.1 °F 33.1 °F 84% 30.01 in 10.0 mi ENE 3.5 mph - N/A   Scattered Clouds
4:15 AM 37.8 °F 34.2 °F 33.3 °F 84% 30.01 in 10.0 mi ENE 4.6 mph - N/A   Clear
4:35 AM 39.2 °F 35.9 °F 33.4 °F 80% 30.00 in 10.0 mi ENE 4.6 mph - N/A   Clear
4:55 AM 39.2 °F - 33.8 °F 81% 30.00 in 10.0 mi Calm Calm - N/A   Mostly Cloudy
5:15 AM 40.1 °F - 34.9 °F 82% 30.05 in 10.0 mi Calm Calm - N/A   Overcast
5:35 AM 40.1 °F 34.7 °F 34.9 °F 82% 29.98 in 10.0 mi NE 8.1 mph - N/A Rain Light Rain
5:55 AM 39.4 °F 35.2 °F 35.6 °F 86% 29.97 in 10.0 mi ENE 5.8 mph - N/A Rain Light Rain
6:15 AM 39.9 °F 35.8 °F 35.6 °F 85% 29.99 in 10.0 mi North 5.8 mph - N/A   Overcast
6:35 AM 40.1 °F 35.3 °F 36.5 °F 87% 29.96 in 10.0 mi NNE 6.9 mph - N/A Rain Light Rain
6:55 AM 40.3 °F 35.5 °F 36.5 °F 86% 29.96 in 10.0 mi North 6.9 mph - N/A Rain Light Rain
7:15 AM 41.0 °F 36.4 °F 37.4 °F 87% 29.96 in 10.0 mi NE 6.9 mph - N/A Rain Light Rain
7:35 AM 41.0 °F 37.1 °F 38.3 °F 90% 29.96 in 10.0 mi East 5.8 mph - N/A Rain Light Rain
7:55 AM 41.0 °F 38.0 °F 38.5 °F 91% 29.96 in 10.0 mi NE 4.6 mph - N/A Rain Light Rain
8:15 AM 41.5 °F 37.8 °F 39.6 °F 93% 29.97 in 7.0 mi NNE 5.8 mph - N/A Rain Light Rain
8:35 AM 41.9 °F 39.0 °F 39.6 °F 91% 29.97 in 10.0 mi NNE 4.6 mph - N/A Rain Rain
8:55 AM 41.9 °F 36.3 °F 39.6 °F 91% 29.98 in 5.0 mi NE 9.2 mph - N/A Rain Rain
9:15 AM 41.9 °F 36.3 °F 40.1 °F 93% 29.98 in 10.0 mi NNE 9.2 mph - N/A Rain , Thunderstorm Light Thunderstorms and Rain
9:35 AM 42.3 °F 35.9 °F 40.1 °F 92% 29.97 in 10.0 mi ENE 11.5 mph - N/A Rain Light Rain
9:55 AM 42.3 °F 37.9 °F 40.1 °F 92% 29.97 in 10.0 mi NNE 6.9 mph - N/A   Drizzle
10:15 AM 42.3 °F 34.8 °F 39.7 °F 91% 29.93 in 10.0 mi ENE 15.0 mph 20.7 mph N/A   Light Drizzle
10:35 AM 42.4 °F 36.1 °F 39.6 °F 90% 29.93 in 10.0 mi ENE 11.5 mph 20.7 mph N/A Rain , Thunderstorm Light Thunderstorms and Rain
10:55 AM 42.4 °F 37.0 °F 39.7 °F 90% 29.96 in 10.0 mi NNE 9.2 mph 18.4 mph N/A Rain Rain
11:15 AM 42.3 °F 35.1 °F 40.1 °F 92% 29.94 in 7.0 mi ENE 13.8 mph 20.7 mph N/A Rain Rain
11:35 AM 42.3 °F 35.1 °F 40.3 °F 93% 29.92 in 7.0 mi ENE 13.8 mph 20.7 mph N/A Rain Light Rain
11:55 AM 42.4 °F 38.1 °F 40.3 °F 92% 29.93 in 10.0 mi East 6.9 mph - N/A   Overcast
12:15 PM 42.8 °F - 40.5 °F 91% 29.96 in 10.0 mi Calm Calm - N/A Rain Light Rain
12:35 PM 42.8 °F - 40.5 °F 91% 29.96 in 3.0 mi Calm Calm - N/A   Heavy Drizzle
12:55 PM 42.8 °F 41.1 °F 41.0 °F 93% 29.96 in 3.0 mi NNE 3.5 mph - N/A   Heavy Drizzle
1:15 PM 42.8 °F 37.0 °F 41.4 °F 95% 29.94 in 3.0 mi East 10.4 mph - N/A   Heavy Drizzle
1:35 PM 42.8 °F 37.0 °F 41.2 °F 94% 29.91 in 4.0 mi ENE 10.4 mph - N/A   Drizzle
1:55 PM 42.8 °F 36.2 °F 40.8 °F 93% 29.90 in 4.0 mi East 12.7 mph 20.7 mph N/A   Light Drizzle
2:15 PM 42.8 °F 38.0 °F 40.6 °F 92% 29.89 in 5.0 mi East 8.1 mph - N/A   Overcast
2:35 PM 42.8 °F 38.6 °F 40.5 °F 91% 29.89 in 10.0 mi East 6.9 mph - N/A   Overcast
2:55 PM 42.8 °F 38.6 °F 40.5 °F 91% 29.89 in 5.0 mi East 6.9 mph - N/A   Overcast
3:15 PM 42.8 °F 37.0 °F 40.5 °F 91% 29.87 in 3.0 mi East 10.4 mph 18.4 mph N/A Rain Light Rain
3:35 PM 42.8 °F 38.0 °F 41.0 °F 93% 29.87 in 4.0 mi East 8.1 mph - N/A   Light Drizzle
3:55 PM 42.8 °F 38.0 °F 41.2 °F 94% 29.87 in 4.0 mi East 8.1 mph - N/A   Overcast
4:15 PM 42.1 °F 37.1 °F 40.6 °F 95% 29.87 in 3.0 mi East 8.1 mph - N/A   Light Drizzle
4:35 PM 42.1 °F 37.1 °F 40.6 °F 95% 29.87 in 4.0 mi ENE 8.1 mph - N/A   Overcast
4:55 PM 42.1 °F 38.4 °F 40.6 °F 95% 29.87 in 3.0 mi East 5.8 mph - N/A   Drizzle
5:15 PM 41.9 °F 36.9 °F 40.6 °F 95% 29.87 in 3.0 mi ENE 8.1 mph - N/A   Heavy Drizzle
5:35 PM 41.9 °F 37.5 °F 40.6 °F 95% 29.87 in 3.0 mi East 6.9 mph - N/A   Drizzle
5:55 PM 41.9 °F 38.2 °F 40.6 °F 95% 29.89 in 4.0 mi East 5.8 mph - N/A   Light Drizzle
6:15 PM 41.9 °F 40.0 °F 40.5 °F 95% 29.90 in 4.0 mi ENE 3.5 mph - N/A   Heavy Drizzle
6:35 PM 41.9 °F 40.0 °F 40.6 °F 95% 29.90 in 4.0 mi North 3.5 mph - N/A   Drizzle
6:55 PM 41.5 °F 39.6 °F 40.5 °F 96% 29.91 in 5.0 mi NE 3.5 mph - N/A   Drizzle
7:15 PM 41.5 °F 39.6 °F 40.6 °F 97% 29.92 in 4.0 mi NE 3.5 mph - N/A   Drizzle
7:35 PM 41.5 °F 39.6 °F 40.6 °F 97% 29.92 in 5.0 mi NNE 3.5 mph - N/A   Drizzle
8:15 PM 41.5 °F 39.6 °F 40.6 °F 97% 29.93 in 10.0 mi NNE 3.5 mph - N/A   Light Drizzle
8:35 PM 41.4 °F 39.4 °F 40.3 °F 96% 29.94 in 7.0 mi North 3.5 mph - N/A   Light Drizzle
8:55 PM 41.5 °F - 40.3 °F 95% 29.94 in 7.0 mi Calm Calm - N/A   Drizzle
9:15 PM 41.7 °F 38.8 °F 40.6 °F 96% 29.95 in 5.0 mi NNW 4.6 mph - N/A   Drizzle
9:35 PM 41.5 °F 37.1 °F 40.5 °F 96% 29.95 in 7.0 mi North 6.9 mph - N/A   Drizzle
9:55 PM 41.4 °F 36.8 °F 40.5 °F 97% 29.95 in 7.0 mi NNW 6.9 mph - N/A   Light Drizzle
10:15 PM 41.5 °F 36.4 °F 40.5 °F 96% 29.95 in 10.0 mi North 8.1 mph - N/A   Overcast
10:35 PM 41.4 °F 36.2 °F 40.1 °F 95% 29.95 in 10.0 mi NNW 8.1 mph - N/A   Overcast
10:55 PM 41.2 °F 35.5 °F 39.7 °F 95% 29.96 in 10.0 mi NNW 9.2 mph - N/A   Overcast
11:15 PM 41.0 °F 34.3 °F 39.2 °F 93% 29.96 in 10.0 mi NNW 11.5 mph - N/A   Overcast
11:35 PM 40.3 °F 33.0 °F 38.3 °F 93% 29.96 in 10.0 mi NNW 12.7 mph 18.4 mph N/A   Overcast
11:55 PM 40.1 °F 32.4 °F 38.1 °F 93% 29.98 in 10.0 mi North 13.8 mph 18.4 mph N/A   Overcast